Location: Pinawa
(50.1500°N, 95.8830°W)
Time: 08:14:19
(UTC-05:00)

Amateur Radio Satellites - All Passes

Search period start: 27 March 2015 07:44
Search period end: 28 March 2015 07:44
Location: Pinawa, 50.1500°N, 95.8830°W

Satellite Date Start Highest point End Downlink Frequencies (MHz)
Time Altitude Azimuth
DANDE 27 Mar 07:48:39 07:50:52 16° 68° (ENE) 07:53:33 436.750
PRISM 27 Mar 07:49:31 07:53:17 30° 265° (W) 07:57:03 437.425
VERMONT LUNAR 27 Mar 07:56:02 07:56:52 11° 162° (SSE) 07:57:47 437.305
O/OREOS (USA 219) 27 Mar 08:11:25 08:13:09 12° 326° (NW) 08:14:45 437.305
HO-68 27 Mar 08:30:02 08:32:57 13° 80° (E) 08:36:20 435.675
Cubesat XI-IV 27 Mar 08:40:49 08:46:00 50° 293° (WNW) 08:51:07 437.490
CUTE-I 27 Mar 08:41:25 08:46:35 50° 293° (WNW) 08:51:41 437.470
STRAND 1 27 Mar 08:55:18 08:58:40 17° 273° (W) 09:01:52 437.568
CUSAT 1 27 Mar 08:56:41 09:00:22 79° 259° (W) 09:05:18 437.405
GONETS M04 27 Mar 09:00:36 09:08:34 39° 275° (W) 09:16:23
BRITE-PL 27 Mar 09:09:37 09:13:03 25° 93° (E) 09:16:35 437.365/2234.400
COMPASS 1 27 Mar 09:17:13 09:19:08 13° 86° (E) 09:21:13 437.405
JAS-2 27 Mar 09:21:21 09:22:41 10° 326° (NW) 09:23:42 435.910
DANDE 27 Mar 09:30:50 09:34:13 45° 260° (W) 09:38:36 436.750
VERMONT LUNAR 27 Mar 09:31:38 09:33:49 16° 179° (S) 09:36:01 437.305
AO-7 27 Mar 09:35:10 09:38:41 13° 332° (NNW) 09:41:59 29.400- 29.500
CANX-2 27 Mar 09:37:51 09:41:42 31° 94° (E) 09:45:34 2200.000
PHONESAT 2.4 27 Mar 09:51:28 09:53:47 17° 174° (S) 09:56:08 2401.200-2431.200
CUTE 1.7 + AOD 2 27 Mar 09:52:03 09:56:06 38° 96° (E) 10:00:10 437.475
UNISAT 6 27 Mar 09:52:13 09:55:20 20° 61° (ENE) 09:58:35 437.425
TIGRISAT 27 Mar 10:03:17 10:06:43 24° 63° (ENE) 10:10:16 435.000
CINEMA 3 27 Mar 10:07:33 10:11:08 25° 93° (E) 10:14:54 145.822/145.860
POPSAT HIP 1 27 Mar 10:08:36 10:11:14 17° 60° (ENE) 10:13:59 437.405
GOMX 1 27 Mar 10:08:44 10:12:55 64° 101° (ESE) 10:17:14 467.674
DOVE 4 27 Mar 10:09:24 10:13:29 45° 99° (E) 10:17:45 437.250
HO-68 27 Mar 10:15:12 10:22:22 63° 103° (ESE) 10:29:31 435.675
NANOSAT C BR1 27 Mar 10:19:43 10:22:50 21° 62° (ENE) 10:26:00 145.865
BUGSAT 1 27 Mar 10:21:18 10:23:50 16° 60° (ENE) 10:26:28 437.445
POLYITAN 1 27 Mar 10:21:33 10:24:45 22° 63° (ENE) 10:28:01 437.675
DELFI C3 27 Mar 10:21:42 10:24:39 19° 90° (E) 10:27:41 145.870
Cubesat XI-IV 27 Mar 10:23:47 10:25:01 11° 312° (NW) 10:26:01 437.490
CUTE-I 27 Mar 10:24:23 10:25:35 11° 312° (NW) 10:26:31 437.470
SEEDS 27 Mar 10:24:55 10:29:13 70° 102° (ESE) 10:33:29 437.485
AAUSAT CUBESAT 2 27 Mar 10:26:06 10:30:16 52° 99° (E) 10:34:25 437.432
ANTELSAT 27 Mar 10:31:29 10:35:33 44° 69° (ENE) 10:39:42 437.575/2403.000
Oscar 11 27 Mar 10:33:01 10:36:56 32° 95° (E) 10:40:52 145.826/435.025
CUBEBUG 2 27 Mar 10:36:03 10:39:48 28° 94° (E) 10:43:40 437.445
UWE-3 27 Mar 10:36:24 10:39:55 24° 92° (E) 10:43:34 435.000/436.395/437.385
FUNcube-1 27 Mar 10:38:54 10:42:08 21° 91° (E) 10:45:31 145.935
BRITE-PL 27 Mar 10:47:55 10:51:45 36° 292° (WNW) 10:55:38 437.365/2234.400
ZACube-1 27 Mar 10:50:31 10:54:11 27° 93° (E) 10:57:59 437.345
COMPASS 1 27 Mar 10:51:11 10:55:28 78° 286° (WNW) 10:59:43 437.405
QB50P1 27 Mar 10:59:20 11:03:23 46° 70° (ENE) 11:07:27 145.935-145.965
DUCHIFAT 1 27 Mar 11:02:37 11:06:40 49° 70° (ENE) 11:10:46 145.980
VERMONT LUNAR 27 Mar 11:09:24 11:10:47 12° 195° (SSW) 11:12:09 437.305
QB50P2 27 Mar 11:13:07 11:17:18 64° 73° (ENE) 11:21:30 145.880/145.840
CANX-2 27 Mar 11:13:45 11:17:39 33° 293° (WNW) 11:21:30 2200.000
BEESAT 2 27 Mar 11:27:03 11:30:21 24° 117° (ESE) 11:33:44 435.950
UNISAT 6 27 Mar 11:27:38 11:31:49 53° 260° (W) 11:36:05 437.425
CUTE 1.7 + AOD 2 27 Mar 11:28:16 11:31:55 27° 295° (WNW) 11:35:31 437.475
PHONESAT 2.4 27 Mar 11:29:14 11:31:24 15° 190° (S) 11:33:33 2401.200-2431.200
UKube-1 27 Mar 11:38:22 11:42:38 54° 101° (E) 11:46:53 .
TIGRISAT 27 Mar 11:39:16 11:43:19 42° 262° (W) 11:47:26 435.000
50 SAT 27 Mar 11:39:43 11:43:13 28° 95° (E) 11:46:46 437.505
POPSAT HIP 1 27 Mar 11:42:30 11:46:42 67° 258° (WSW) 11:50:56 437.405
CINEMA 3 27 Mar 11:44:28 11:48:31 40° 291° (WNW) 11:52:41 145.822/145.860
DX 1 27 Mar 11:45:17 11:49:38 67° 103° (ESE) 11:53:56 434.975-435.025
DOVE 4 27 Mar 11:47:45 11:51:06 23° 296° (WNW) 11:54:27 437.250
GOMX 1 27 Mar 11:47:59 11:50:43 17° 299° (WNW) 11:53:24 467.674
NANOSAT C BR1 27 Mar 11:54:17 11:58:24 51° 260° (W) 12:02:32 145.865
BUGSAT 1 27 Mar 11:54:45 11:58:55 67° 258° (WSW) 12:03:02 437.445
DELFI C3 27 Mar 11:56:08 12:00:08 48° 289° (WNW) 12:04:05 145.870
POLYITAN 1 27 Mar 11:56:20 12:00:26 48° 261° (W) 12:04:32 437.675
HUMSAT D 27 Mar 12:00:37 12:04:51 69° 102° (ESE) 12:09:06 437.325/437.525
SEEDS 27 Mar 12:01:49 12:04:36 17° 300° (WNW) 12:07:14 437.485
AAUSAT CUBESAT 2 27 Mar 12:02:26 12:05:36 20° 298° (WNW) 12:08:41 437.432
HO-68 27 Mar 12:03:23 12:09:48 35° 303° (WNW) 12:16:05 435.675
BEESAT 3 27 Mar 12:06:06 12:10:09 59° 125° (SE) 12:14:15 437.485
Oscar 19 27 Mar 12:06:59 12:09:36 15° 53° (NE) 12:12:25 437.125/150
Oscar 11 27 Mar 12:09:12 12:13:08 33° 293° (WNW) 12:17:01 145.826/435.025
ANTELSAT 27 Mar 12:09:13 12:12:36 22° 269° (W) 12:15:59 437.575/2403.000
UWE-3 27 Mar 12:12:32 12:16:40 43° 290° (WNW) 12:20:52 435.000/436.395/437.385
CUBEBUG 2 27 Mar 12:12:34 12:16:36 37° 292° (WNW) 12:20:41 437.445
FUNcube-1 27 Mar 12:14:35 12:18:46 50° 289° (WNW) 12:23:02 145.935
VELOX 1 27 Mar 12:15:31 12:19:55 61° 102° (ESE) 12:24:17 145.980
AISAT 27 Mar 12:19:06 12:23:31 69° 102° (ESE) 12:27:55 437.250
CUBEBUG 1 27 Mar 12:22:52 12:26:53 36° 96° (E) 12:30:55 437.445
AIST 2 27 Mar 12:24:30 12:28:17 32° 119° (ESE) 12:32:09 435.215
ZACube-1 27 Mar 12:26:39 12:30:41 38° 292° (WNW) 12:34:46 437.345
COMPASS 1 27 Mar 12:28:56 12:30:30 12° 303° (WNW) 12:31:54 437.405
QB50P1 27 Mar 12:36:15 12:39:32 21° 269° (W) 12:42:43 145.935-145.965
DUCHIFAT 1 27 Mar 12:39:39 12:42:50 20° 269° (W) 12:45:54 145.980
ESTCUBE 1 27 Mar 12:40:30 12:45:01 60° 101° (E) 12:49:29 437.505/2401.250
TISAT 1 27 Mar 12:40:55 12:43:06 14° 87° (E) 12:45:27 437.305
SPROUT 27 Mar 12:42:01 12:44:52 17° 89° (E) 12:47:48 437.525
QB50P2 27 Mar 12:51:05 12:53:42 15° 272° (W) 12:56:11 145.880/145.840
BEESAT 2 27 Mar 13:04:10 13:08:15 53° 316° (NW) 13:12:21 435.950
ITAMSAT 1 27 Mar 13:06:31 13:09:46 17° 55° (NE) 13:13:09 435.822/435.867
AO-7 27 Mar 13:12:56 13:16:42 14° 30° (NNE) 13:20:45 29.400- 29.500
50 SAT 27 Mar 13:14:34 13:18:10 31° 293° (WNW) 13:21:44 437.505
UKube-1 27 Mar 13:15:12 13:18:29 21° 299° (WNW) 13:21:39 .
O/OREOS (USA 219) 27 Mar 13:15:26 13:18:40 19° 42° (NE) 13:21:57 437.305
DX 1 27 Mar 13:22:30 13:25:28 18° 301° (WNW) 13:28:18 434.975-435.025
HUMSAT D 27 Mar 13:37:29 13:40:12 16° 300° (WNW) 13:42:49 437.325/437.525
Gurwin Techsat 1B 27 Mar 13:40:45 13:44:58 25° 60° (ENE) 13:49:18 435.225
Oscar 19 27 Mar 13:43:06 13:48:12 75° 73° (ENE) 13:53:22 437.125/150
BEESAT 3 27 Mar 13:44:58 13:48:31 27° 326° (NW) 13:52:05 437.485
VELOX 1 27 Mar 13:52:56 13:56:06 19° 300° (WNW) 13:59:11 145.980
HO-68 27 Mar 13:54:01 13:55:34 11° 326° (NNW) 13:56:51 435.675
AISAT 27 Mar 13:56:42 13:59:42 18° 301° (WNW) 14:02:34 437.250
YUBILEINY 27 Mar 13:57:14 14:05:05 40° 85° (E) 14:13:08 435.215
SWISSCUBE 27 Mar 13:57:26 14:00:35 18° 88° (E) 14:03:52 437.505
CUBEBUG 1 27 Mar 13:59:26 14:03:12 29° 295° (WNW) 14:06:53 437.445
BEESAT 27 Mar 14:00:50 14:03:58 18° 88° (E) 14:07:15 436.000
AIST 2 27 Mar 14:02:41 14:06:48 43° 319° (NW) 14:10:57 435.215
TISAT 1 27 Mar 14:15:16 14:19:27 70° 287° (WNW) 14:23:37 437.305
SPROUT 27 Mar 14:17:08 14:21:22 57° 288° (WNW) 14:25:34 437.525
ESTCUBE 1 27 Mar 14:18:09 14:21:32 20° 299° (WNW) 14:24:47 437.505/2401.250
JAS-2 27 Mar 14:22:27 14:26:41 17° 44° (NE) 14:31:20 435.910
HORYU 2 27 Mar 14:25:48 14:28:10 15° 57° (ENE) 14:30:42 437.375
ITAMSAT 1 27 Mar 14:43:23 14:48:38 88° 76° (ENE) 14:53:54 435.822/435.867
BEESAT 2 27 Mar 14:44:37 14:47:18 16° 338° (NNW) 14:49:56 435.950
ITUPSAT 1 27 Mar 14:45:21 14:49:55 41° 98° (E) 14:54:28 437.325
O/OREOS (USA 219) 27 Mar 14:54:08 14:58:45 82° 245° (WSW) 15:03:16 437.305
AO-7 27 Mar 14:59:56 15:07:24 40° 54° (NE) 15:14:57 29.400- 29.500
PCSat 27 Mar 15:01:56 15:05:03 16° 106° (ESE) 15:08:23 145.827
AIST 1 27 Mar 15:04:43 15:07:56 20° 65° (ENE) 15:11:12
Gurwin Techsat 1B 27 Mar 15:19:20 15:24:37 61° 259° (WSW) 15:29:55 435.225
STARS 27 Mar 15:23:34 15:25:57 15° 87° (E) 15:28:30 437.465
Oscar 19 27 Mar 15:24:44 15:28:13 18° 273° (W) 15:31:34 437.125/150
BEESAT 3 27 Mar 15:26:18 15:27:55 12° 349° (N) 15:29:30 437.485
SWISSCUBE 27 Mar 15:34:13 15:39:00 69° 289° (WNW) 15:43:46 437.505
BEESAT 27 Mar 15:37:35 15:42:23 69° 288° (WNW) 15:47:08 436.000
AIST 2 27 Mar 15:43:54 15:46:29 15° 342° (NNW) 15:49:00 435.215
YUBILEINY 27 Mar 15:53:00 16:01:41 58° 288° (WNW) 16:10:24 435.215
TISAT 1 27 Mar 15:53:45 15:54:33 10° 305° (NW) 15:55:09 437.305
HORYU 2 27 Mar 15:59:48 16:04:15 87° 258° (WSW) 16:08:45 437.375
JAS-2 27 Mar 16:03:23 16:10:11 56° 66° (ENE) 16:17:42 435.910
KKS-1 27 Mar 16:21:22 16:25:50 75° 103° (ESE) 16:30:17 437.445
ITUPSAT 1 27 Mar 16:23:29 16:27:42 30° 296° (WNW) 16:31:50 437.325
ITAMSAT 1 27 Mar 16:25:48 16:28:57 15° 274° (W) 16:31:53 435.822/435.867
BEESAT 2 27 Mar 16:26:00 16:27:05 11° 2° (N) 16:28:12 435.950
O/OREOS (USA 219) 27 Mar 16:36:02 16:37:27 11° 262° (W) 16:38:37 437.305
AIST 1 27 Mar 16:41:44 16:45:57 50° 266° (W) 16:50:06
PCSat 27 Mar 16:42:20 16:47:46 85° 125° (SE) 16:53:15 145.827
Cubesat XI-IV 27 Mar 16:50:47 16:53:34 15° 52° (NE) 16:56:32 437.490
CUTE-I 27 Mar 16:51:16 16:54:02 15° 52° (NE) 16:56:59 437.470
AO-7 27 Mar 16:51:41 16:59:56 63° 256° (WSW) 17:08:10 29.400- 29.500
STARS 27 Mar 16:58:35 17:03:00 73° 287° (WNW) 17:07:23 437.465
BEESAT 3 27 Mar 17:05:56 17:07:42 12° 13° (NNE) 17:09:30 437.485
SWISSCUBE 27 Mar 17:14:01 17:16:05 12° 307° (NW) 17:17:58 437.505
BEESAT 27 Mar 17:17:23 17:19:27 12° 307° (NW) 17:21:20 436.000
AIST 2 27 Mar 17:25:12 17:26:47 12° 5° (N) 17:28:22 435.215
HORYU 2 27 Mar 17:40:08 17:41:43 11° 275° (W) 17:43:04 437.375
MOZHAYETS 4 27 Mar 17:40:53 17:45:10 35° 95° (E) 17:49:27
JAS-2 27 Mar 17:49:07 17:55:35 38° 269° (W) 18:02:34 435.910
AUBIESAT-1 27 Mar 17:54:43 17:57:46 17° 93° (E) 18:00:58 437.475
YUBILEINY 27 Mar 17:55:36 18:01:02 17° 315° (NW) 18:06:07 435.215
KKS-1 27 Mar 17:59:08 18:02:00 17° 301° (WNW) 18:04:45 437.445
BEESAT 2 27 Mar 18:03:55 18:06:49 18° 25° (NNE) 18:09:46 435.950
M-CUBED/EXP-1 PRIME 27 Mar 18:16:34 18:20:45 29° 99° (E) 18:24:57 437.505
GONETS M04 27 Mar 18:20:18 18:23:20 13° 69° (ENE) 18:26:58
PCSat 27 Mar 18:27:18 18:31:53 26° 327° (NNW) 18:36:25 145.827
Cubesat XI-IV 27 Mar 18:27:30 18:32:51 71° 71° (ENE) 18:38:14 437.490
CUTE-I 27 Mar 18:27:58 18:33:18 71° 72° (ENE) 18:38:41 437.470
STARS 27 Mar 18:37:09 18:38:46 12° 305° (NW) 18:40:12 437.465
BEESAT 3 27 Mar 18:43:20 18:47:01 30° 36° (NE) 18:50:41 437.485
AO-7 27 Mar 18:50:16 18:54:42 14° 279° (W) 18:58:38 29.400- 29.500
AIST 2 27 Mar 19:03:32 19:06:53 22° 29° (NNE) 19:10:16 435.215
HO-68 27 Mar 19:03:41 19:08:37 21° 47° (NE) 19:13:44 435.675
SO-50 27 Mar 19:08:50 19:10:10 11° 108° (ESE) 19:11:45 436.795
MOZHAYETS 4 27 Mar 19:18:11 19:22:23 33° 294° (WNW) 19:26:31
STRAND 1 27 Mar 19:20:24 19:23:55 19° 88° (E) 19:27:34 437.568
CUBESAT XI-V 27 Mar 19:22:10 19:26:21 32° 94° (E) 19:30:31 437.345
PRISM 27 Mar 19:27:20 19:30:54 27° 94° (E) 19:34:30 437.425
AUBIESAT-1 27 Mar 19:28:19 19:33:10 79° 291° (WNW) 19:37:58 437.475
BEESAT 2 27 Mar 19:41:34 19:45:44 68° 47° (NE) 19:49:50 435.950
DOVE 4 27 Mar 19:45:40 19:46:57 11° 57° (ENE) 19:48:24 437.250
GOMX 1 27 Mar 19:45:42 19:48:22 16° 61° (ENE) 19:51:05 467.674
SEEDS 27 Mar 19:48:38 19:50:26 13° 57° (ENE) 19:52:23 437.485
M-CUBED/EXP-1 PRIME 27 Mar 19:51:07 19:55:47 47° 297° (WNW) 20:00:25 437.505
RS-15 27 Mar 19:55:36 20:05:40 47° 114° (ESE) 20:16:04 29.354- 29.394
Cubesat XI-IV 27 Mar 20:09:36 20:13:34 20° 271° (W) 20:17:24 437.490
GONETS M04 27 Mar 20:09:58 20:18:20 57° 91° (E) 20:26:51
CUTE-I 27 Mar 20:10:01 20:14:00 20° 271° (W) 20:17:50 437.470
COMPASS 1 27 Mar 20:13:03 20:15:48 18° 61° (ENE) 20:18:40 437.405
PCSat 27 Mar 20:14:29 20:17:13 14° 352° (N) 20:19:56 145.827
BEESAT 3 27 Mar 20:21:16 20:25:17 49° 236° (WSW) 20:29:14 437.485
BRITE-PL 27 Mar 20:24:47 20:29:19 51° 71° (ENE) 20:33:34 437.365/2234.400
CANX-2 27 Mar 20:35:17 20:39:14 40° 69° (ENE) 20:43:15 2200.000
AIST 2 27 Mar 20:41:45 20:46:05 89° 204° (SSW) 20:50:18 435.215
SO-50 27 Mar 20:45:15 20:49:54 69° 127° (SE) 20:54:43 436.795
HO-68 27 Mar 20:48:12 20:55:20 74° 69° (ENE) 21:02:32 435.675
CUTE 1.7 + AOD 2 27 Mar 20:49:21 20:53:27 49° 71° (ENE) 20:57:37 437.475
STRAND 1 27 Mar 20:58:36 21:03:43 70° 289° (WNW) 21:08:48 437.568
CUBESAT XI-V 27 Mar 20:59:35 21:03:50 35° 294° (WNW) 21:08:02 437.345
PRISM 27 Mar 21:02:37 21:06:30 36° 293° (WNW) 21:10:18 437.425
AUBIESAT-1 27 Mar 21:04:22 21:07:19 16° 310° (NW) 21:10:09 437.475
UKube-1 27 Mar 21:04:29 21:06:26 13° 56° (NE) 21:08:31 .
DX 1 27 Mar 21:11:21 21:13:53 16° 58° (ENE) 21:16:33 434.975-435.025
DELFI C3 27 Mar 21:14:04 21:17:17 23° 64° (ENE) 21:20:35 145.870
CINEMA 3 27 Mar 21:14:07 21:18:00 38° 69° (ENE) 21:21:54 145.822/145.860
DOVE 4 27 Mar 21:19:49 21:24:09 80° 75° (ENE) 21:28:22 437.250
BEESAT 2 27 Mar 21:20:35 21:23:29 18° 246° (WSW) 21:26:15 435.950
AAUSAT CUBESAT 2 27 Mar 21:21:22 21:25:30 65° 73° (ENE) 21:29:42 437.432
SEEDS 27 Mar 21:21:25 21:25:38 87° 76° (ENE) 21:29:54 437.485
GOMX 1 27 Mar 21:21:40 21:26:10 70° 259° (WSW) 21:30:26 467.674
HUMSAT D 27 Mar 21:24:23 21:25:57 12° 57° (ENE) 21:27:42 437.325/437.525
M-CUBED/EXP-1 PRIME 27 Mar 21:28:36 21:29:42 11° 315° (NW) 21:30:35 437.505
Oscar 11 27 Mar 21:32:10 21:36:16 44° 69° (ENE) 21:40:24 145.826/435.025
UWE-3 27 Mar 21:38:21 21:42:02 33° 67° (ENE) 21:45:49 435.000/436.395/437.385
CUBEBUG 2 27 Mar 21:39:06 21:42:57 39° 69° (ENE) 21:46:52 437.445
FUNcube-1 27 Mar 21:39:27 21:42:58 28° 65° (ENE) 21:46:33 145.935
VELOX 1 27 Mar 21:43:33 21:46:01 15° 58° (ENE) 21:48:37 145.980
COMPASS 1 27 Mar 21:46:57 21:51:06 62° 260° (W) 21:55:19 437.405
AISAT 27 Mar 21:47:03 21:49:46 17° 59° (ENE) 21:52:36 437.250
ZACube-1 27 Mar 21:51:14 21:55:01 36° 68° (ENE) 21:58:52 437.345
PCSat 27 Mar 21:59:30 22:02:54 17° 18° (NNE) 22:06:21 145.827
BRITE-PL 27 Mar 22:04:34 22:08:09 21° 269° (W) 22:11:28 437.365/2234.400
RS-15 27 Mar 22:06:50 22:17:44 68° 320° (NW) 22:28:57 29.354- 29.394
GONETS M04 27 Mar 22:07:28 22:15:37 41° 295° (WNW) 22:23:45
ESTCUBE 1 27 Mar 22:10:14 22:12:48 15° 57° (ENE) 22:15:30 437.505/2401.250
CANX-2 27 Mar 22:11:48 22:15:20 25° 268° (W) 22:18:50 2200.000
CUSAT 1 27 Mar 22:12:36 22:15:24 85° 102° (ESE) 22:18:01 437.405
AIST 2 27 Mar 22:21:55 22:24:04 13° 249° (WSW) 22:26:04 435.215
CUTE 1.7 + AOD 2 27 Mar 22:26:31 22:29:42 20° 270° (W) 22:32:49 437.475
SO-50 27 Mar 22:26:41 22:30:53 30° 329° (NNW) 22:35:10 436.795
50 SAT 27 Mar 22:30:23 22:33:53 32° 67° (ENE) 22:37:27 437.505
UKube-1 27 Mar 22:37:36 22:41:57 84° 76° (ENE) 22:46:20 .
HO-68 27 Mar 22:37:50 22:43:49 27° 270° (W) 22:49:40 435.675
STRAND 1 27 Mar 22:39:31 22:42:07 14° 307° (NW) 22:44:31 437.568
DX 1 27 Mar 22:45:15 22:49:38 79° 256° (WSW) 22:54:01 434.975-435.025
DELFI C3 27 Mar 22:48:24 22:52:16 41° 262° (W) 22:56:11 145.870
DANDE 27 Mar 22:50:30 22:53:19 38° 285° (WNW) 22:55:51 436.750
CINEMA 3 27 Mar 22:51:57 22:55:24 24° 267° (W) 22:58:46 145.822/145.860
HUMSAT D 27 Mar 22:57:01 23:01:08 87° 70° (ENE) 23:05:17 437.325/437.525
AAUSAT CUBESAT 2 27 Mar 22:59:07 23:01:39 15° 273° (W) 23:04:04 437.432
SEEDS 27 Mar 23:00:41 23:02:11 11° 276° (W) 23:03:27 437.485
DOVE 4 27 Mar 23:00:44 23:02:35 12° 274° (W) 23:04:13 437.250
Oscar 11 27 Mar 23:09:10 23:12:39 23° 268° (W) 23:16:07 145.826/435.025
UWE-3 27 Mar 23:15:02 23:18:39 28° 266° (W) 23:22:16 435.000/436.395/437.385
UNISAT 6 27 Mar 23:15:04 23:18:41 23° 92° (E) 23:22:26 437.425
FUNcube-1 27 Mar 23:15:27 23:19:15 34° 264° (W) 23:23:04 145.935
CUBEBUG 2 27 Mar 23:16:27 23:19:51 23° 268° (W) 23:23:12 437.445
VELOX 1 27 Mar 23:17:35 23:22:03 84° 254° (WSW) 23:26:31 145.980
AISAT 27 Mar 23:21:26 23:25:54 76° 257° (WSW) 23:30:22 437.250
CUBEBUG 1 27 Mar 23:23:19 23:27:38 55° 70° (ENE) 23:31:57 437.445
POPSAT HIP 1 27 Mar 23:24:26 23:26:45 15° 88° (E) 23:29:13 437.405
TIGRISAT 27 Mar 23:26:02 23:29:57 28° 94° (E) 23:33:57 435.000
ZACube-1 27 Mar 23:28:01 23:31:31 26° 267° (W) 23:35:01 437.345
BUGSAT 1 27 Mar 23:34:12 23:35:54 13° 87° (E) 23:37:47 437.445
NANOSAT C BR1 27 Mar 23:35:23 23:38:20 19° 90° (E) 23:41:23 145.865
TISAT 1 27 Mar 23:37:29 23:40:37 21° 62° (ENE) 23:43:50 437.305
POLYITAN 1 27 Mar 23:37:46 23:40:53 20° 91° (E) 23:44:06 437.675
SPROUT 27 Mar 23:40:36 23:44:05 25° 64° (ENE) 23:47:39 437.525
PCSat 27 Mar 23:42:38 23:47:48 42° 43° (NE) 23:52:57 145.827
ESTCUBE 1 27 Mar 23:44:32 23:49:07 86° 259° (W) 23:53:42 437.505/2401.250
ISS 27 Mar 23:53:10 23:54:34 12° 138° (SE) 23:56:03 145.825
ANTELSAT 27 Mar 23:55:02 23:59:29 53° 100° (E) 00:04:02 437.575/2403.000
YUBILEINY 28 Mar 00:00:46 00:07:52 27° 56° (NE) 00:15:08 435.215
50 SAT 28 Mar 00:05:31 00:08:52 26° 266° (W) 00:12:13 437.505
SO-50 28 Mar 00:10:00 00:12:56 16° 353° (N) 00:15:53 436.795
GONETS M04 28 Mar 00:12:54 00:15:49 11° 324° (NW) 00:18:18
QB50P1 28 Mar 00:15:35 00:19:40 45° 99° (E) 00:23:44 145.935-145.965
UKube-1 28 Mar 00:16:51 00:18:48 12° 274° (W) 00:20:32 .
DUCHIFAT 1 28 Mar 00:18:31 00:22:37 47° 99° (E) 00:26:42 145.980
ITUPSAT 1 28 Mar 00:21:45 00:24:11 14° 55° (NE) 00:26:48 437.325
RS-15 28 Mar 00:22:14 00:32:27 40° 351° (N) 00:43:00 29.354- 29.394
QB50P2 28 Mar 00:29:41 00:33:55 64° 102° (ESE) 00:38:07 145.880/145.840
HUMSAT D 28 Mar 00:36:32 00:37:38 11° 276° (W) 00:38:31 437.325/437.525
UNISAT 6 28 Mar 00:51:21 00:55:44 48° 290° (WNW) 01:00:09 437.425
VELOX 1 28 Mar 00:58:05 00:59:26 11° 276° (W) 01:00:32 145.980
POPSAT HIP 1 28 Mar 00:58:57 01:03:10 68° 287° (WNW) 01:07:22 437.405
CUBEBUG 1 28 Mar 01:01:08 01:04:22 19° 270° (W) 01:07:30 437.445
TIGRISAT 28 Mar 01:02:36 01:06:49 39° 292° (WNW) 01:11:04 435.000
BUGSAT 1 28 Mar 01:07:56 01:11:59 73° 287° (WNW) 01:16:00 437.445
SWISSCUBE 28 Mar 01:08:09 01:12:28 34° 65° (ENE) 01:16:50 437.505
NANOSAT C BR1 28 Mar 01:10:25 01:14:33 52° 289° (WNW) 01:18:39 145.865
BEESAT 28 Mar 01:11:28 01:15:45 34° 65° (ENE) 01:20:06 436.000
TISAT 1 28 Mar 01:12:02 01:16:09 50° 261° (W) 01:20:17 437.305
POLYITAN 1 28 Mar 01:13:01 01:17:07 49° 290° (WNW) 01:21:13 437.675
SPROUT 28 Mar 01:15:57 01:20:02 41° 262° (W) 01:24:07 437.525
ESTCUBE 1 28 Mar 01:25:02 01:26:48 12° 276° (W) 01:28:19 437.505/2401.250
PCSat 28 Mar 01:26:09 01:31:18 44° 244° (WSW) 01:36:23 145.827
ISS 28 Mar 01:27:16 01:30:27 53° 155° (SSE) 01:33:38 145.825
ANTELSAT 28 Mar 01:32:27 01:36:00 23° 298° (WNW) 01:39:32 437.575/2403.000
KKS-1 28 Mar 01:49:22 01:52:15 18° 59° (ENE) 01:55:16 437.445
Oscar 19 28 Mar 01:50:48 01:54:20 19° 88° (E) 01:58:01 437.125/150
SO-50 28 Mar 01:51:52 01:55:16 18° 17° (NNE) 01:58:44 436.795
QB50P1 28 Mar 01:51:58 01:55:20 23° 297° (WNW) 01:58:37 145.935-145.965
DUCHIFAT 1 28 Mar 01:54:56 01:58:13 22° 297° (WNW) 02:01:25 145.980
ITUPSAT 1 28 Mar 01:56:35 02:01:24 80° 72° (ENE) 02:06:16 437.325
YUBILEINY 28 Mar 01:57:10 02:06:05 88° 265° (W) 02:14:54 435.215
QB50P2 28 Mar 02:06:34 02:09:26 17° 300° (WNW) 02:12:11 145.880/145.840
STARS 28 Mar 02:24:44 02:28:12 24° 63° (ENE) 02:31:45 437.465
RS-15 28 Mar 02:37:18 02:48:00 47° 24° (NNE) 02:59:14 29.354- 29.394
POPSAT HIP 1 28 Mar 02:37:41 02:38:20 10° 305° (NW) 02:38:48 437.405
SWISSCUBE 28 Mar 02:45:53 02:50:20 36° 264° (W) 02:54:46 437.505
BUGSAT 1 28 Mar 02:46:15 02:46:47 10° 304° (NW) 02:47:09 437.445
BEESAT 28 Mar 02:49:09 02:53:36 36° 264° (W) 02:58:02 436.000
ITAMSAT 1 28 Mar 02:52:14 02:56:11 22° 90° (E) 03:00:14 435.822/435.867
ISS 28 Mar 03:03:36 03:06:51 67° 355° (N) 03:10:05 145.825
KKS-1 28 Mar 03:24:02 03:28:28 69° 257° (WSW) 03:32:55 437.445
Oscar 19 28 Mar 03:29:07 03:34:17 72° 289° (WNW) 03:39:27 437.125/150
Gurwin Techsat 1B 28 Mar 03:30:50 03:35:47 38° 96° (E) 03:40:44 435.225
SO-50 28 Mar 03:32:14 03:37:00 46° 40° (NE) 03:41:46 436.795
ITUPSAT 1 28 Mar 03:37:04 03:39:59 15° 273° (W) 03:42:44 437.325
M-CUBED/EXP-1 PRIME 28 Mar 03:37:42 03:39:25 12° 47° (NE) 03:41:20 437.505
HORYU 2 28 Mar 03:48:05 03:50:13 13° 86° (E) 03:52:33 437.375
YUBILEINY 28 Mar 03:55:16 04:01:49 23° 283° (WNW) 04:08:02 435.215
STARS 28 Mar 04:00:14 04:04:28 46° 261° (W) 04:08:42 437.465
GONETS M04 28 Mar 04:20:20 04:21:40 10° 34° (NE) 04:23:27
ITAMSAT 1 28 Mar 04:31:01 04:36:10 62° 290° (WNW) 04:41:16 435.822/435.867
ISS 28 Mar 04:40:08 04:43:23 86° 10° (N) 04:46:38 145.825
AUBIESAT-1 28 Mar 04:46:40 04:50:29 38° 61° (ENE) 04:54:39 437.475
MOZHAYETS 4 28 Mar 04:47:09 04:51:40 56° 71° (ENE) 04:56:16
AO-7 28 Mar 04:47:59 04:55:21 35° 94° (E) 05:02:49 29.400- 29.500
RS-15 28 Mar 04:50:18 05:01:44 86° 231° (SW) 05:13:41 29.354- 29.394
JAS-2 28 Mar 04:52:56 05:00:04 37° 91° (E) 05:06:51 435.910
M-CUBED/EXP-1 PRIME 28 Mar 05:09:26 05:13:28 68° 67° (ENE) 05:17:55 437.505
Oscar 19 28 Mar 05:10:08 05:12:52 14° 307° (NW) 05:15:25 437.125/150
O/OREOS (USA 219) 28 Mar 05:10:48 05:15:12 47° 110° (ESE) 05:19:39 437.305
Gurwin Techsat 1B 28 Mar 05:10:54 05:15:47 38° 295° (WNW) 05:20:38 435.225
SO-50 28 Mar 05:12:56 05:17:32 38° 240° (WSW) 05:22:05 436.795
AIST 1 28 Mar 05:15:28 05:19:52 75° 98° (E) 05:24:17
HORYU 2 28 Mar 05:23:01 05:27:34 82° 284° (WNW) 05:32:04 437.375
ITAMSAT 1 28 Mar 06:12:33 06:14:46 13° 309° (NW) 06:16:47 435.822/435.867
GONETS M04 28 Mar 06:14:05 06:22:05 37° 63° (ENE) 06:30:12
ISS 28 Mar 06:16:44 06:19:35 28° 213° (SSW) 06:22:23 145.825
AUBIESAT-1 28 Mar 06:21:53 06:25:27 28° 262° (W) 06:29:15 437.475
PRISM 28 Mar 06:21:53 06:25:47 38° 68° (ENE) 06:29:44 437.425
MOZHAYETS 4 28 Mar 06:25:47 06:29:18 21° 271° (W) 06:32:44
CUBESAT XI-V 28 Mar 06:29:50 06:34:25 53° 70° (ENE) 06:39:01 437.345
JAS-2 28 Mar 06:37:45 06:45:30 61° 293° (WNW) 06:52:47 435.910
STRAND 1 28 Mar 06:40:22 06:45:12 44° 67° (ENE) 06:50:06 437.568
AO-7 28 Mar 06:40:33 06:48:47 67° 296° (WNW) 06:56:57 29.400- 29.500
Cubesat XI-IV 28 Mar 06:40:57 06:44:42 20° 88° (E) 06:48:36 437.490
CUTE-I 28 Mar 06:41:14 06:44:58 20° 88° (E) 06:48:51 437.470
M-CUBED/EXP-1 PRIME 28 Mar 06:46:24 06:48:59 16° 268° (W) 06:51:34 437.505
O/OREOS (USA 219) 28 Mar 06:50:50 06:54:52 28° 311° (NW) 06:58:50 437.305
AIST 1 28 Mar 06:55:32 06:58:10 15° 299° (WNW) 07:00:40
HORYU 2 28 Mar 07:01:20 07:03:34 13° 304° (NW) 07:05:39 437.375
CUSAT 1 28 Mar 07:02:15 07:02:53 10° 63° (ENE) 07:03:45 437.405
RS-15 28 Mar 07:03:34 07:12:54 29° 255° (WSW) 07:22:09 29.354- 29.394
